{"data":{"norad_id":68665,"epoch":"2026-05-25T05:14:43.922688Z","epoch_age_seconds":49941,"freshness":"FRESH","line1":"1 68665U 26077D   26145.21856392  .00019242  00000+0  59666-3 0  9999","line2":"2 68665  97.2845  16.7498 0001261 101.4603 258.6782 15.33453260  6880","mean_motion":15.3345326,"eccentricity":0.0001261,"inclination_deg":97.2845,"raan_deg":16.7498,"arg_perigee_deg":101.4603,"mean_anomaly_deg":258.6782,"bstar":0.00059666,"rev_number":688,"period_min":93.905698827756,"perigee_km":464.65561366886,"apogee_km":466.38158361084,"semimajor_km":6843.6555986399,"source":"CELESTRAK","updated_at":"2026-05-25T13:38:21.991706Z"}}